Regional Weather Roundup
Issued by NWS

Home | Current Version | Previous Version | Text Only | Print | Product List | Glossary Off
Versions: 1 2 3 4 5 6 7 8 9 10 11 12 13 14 15 16 17 18 19 20 21 22 23 24 25 26 27 28 29 30 31 32 33 34 35 36 37 38 39 40 41 42 43 44 45 46 47 48 49 50

000
ASUS45 KCYS 050610
RWRWY

WYOMING REGIONAL WEATHER ROUNDUP
NATIONAL WEATHER SERVICE CHEYENNE WY
1200 AM MDT TUE MAY 05 2015

NOTE:  "FAIR" INDICATES FEW OR NO CLOUDS BELOW 12,000 FEET
WITH NO SIGNIFICANT WEATHER AND/OR OBSTRUCTIONS TO VISIBILITY.

WYZ001-050700-
YELLOWSTONE NATIONAL PARK

CITY           SKY/WX    TMP DP  RH WIND       PRES   REMARKS
LK YELLOWSTONE   N/A     33  29  85 NW3       30.07S
6HR MIN TEMP:  33; 6HR MAX TEMP:  55;

W YELLOWSTONE  NOT AVBL

$$
WYZ002>013-054>058-071-098>099-050700-
NORTHERN WYOMING

CITY           SKY/WX    TMP DP  RH WIND       PRES   REMARKS
JACKSON        FAIR      41  36  81 NW8       29.99F
CODY           FAIR      52  41  66 CALM      29.92S
GREYBULL       FAIR      61  41  47 CALM      29.89S
6HR MIN TEMP:  59; 6HR MAX TEMP:  76;

WORLAND        FAIR      59  41  51 SW7       29.90F
6HR MIN TEMP:  56; 6HR MAX TEMP:  73;

SHERIDAN       FAIR      52  41  66 SE18G25   29.90S
6HR MIN TEMP:  52; 6HR MAX TEMP:  70;

BUFFALO        FAIR      48  40  73 S22       29.97F
6HR MIN TEMP:  48; 6HR MAX TEMP:  65;

GILLETTE       FAIR      48  32  53 S25G32    29.99F
6HR MIN TEMP:  47; 6HR MAX TEMP:  59;

HULETT         FAIR      52  32  46 S8        30.03F
NEWCASTLE      CLOUDY    52  28  40 SE16G25   30.09R

$$
WYZ014>020-022>026-101>103-050700-
CENTRAL WYOMING

CITY           SKY/WX    TMP DP  RH WIND       PRES   REMARKS
BIG PINEY      CLOUDY    48  39  71 SE9       30.06R
6HR MIN TEMP:  47; 6HR MAX TEMP:  59;

PINEDALE       FAIR      45  39  81 CALM      30.07S
DUBOIS         FAIR      43  34  70 NW3       30.04S
LANDER         MOCLDY    56  37  49 W9        29.95F
6HR MIN TEMP:  55; 6HR MAX TEMP:  66;

RIVERTON       FAIR      56  39  53 W13       29.96F
6HR MIN TEMP:  54; 6HR MAX TEMP:  69; 6HR PCP: TRACE;

CASPER         FAIR      43  40  89 NE6       30.00F
6HR MIN TEMP:  43; 6HR MAX TEMP:  64;

DOUGLAS        FAIR      47  39  74 SE15      30.04F
6HR MIN TEMP:  47; 6HR MAX TEMP:  55;


$$
WYZ021-027>030-104>119-050700-
SOUTHERN WYOMING

CITY           SKY/WX    TMP DP  RH WIND       PRES   REMARKS
EVANSTON       FAIR      45  37  73 E9        30.01F
6HR MIN TEMP:  45; 6HR MAX TEMP:  54;

KEMMERER       CLOUDY    45  37  76 CALM      30.05R
FORT BRIDGER   CLEAR     43  43 100 S7        30.06S
ROCK SPRINGS   FAIR      47  40  76 NE8       30.02F
6HR MIN TEMP:  46; 6HR MAX TEMP:  61;

DIXON          FAIR      42  38  86 CALM      30.04F
RAWLINS        FAIR      42  39  89 E8        30.04S
6HR MIN TEMP:  41; 6HR MAX TEMP:  55;

SARATOGA       FAIR      41  37  87 MISG      30.06S
LARAMIE        CLOUDY    44  41  89 SE12      30.08S
6HR MIN TEMP:  43; 6HR MAX TEMP:  49;

CHEYENNE       CLOUDY    44  42  93 CALM      30.09F FOG
6HR MIN TEMP:  43; 6HR MAX TEMP:  52; 6HR PCP: TRACE;

TORRINGTON     CLOUDY    45  39  79 NE5       30.08F
6HR MIN TEMP:  44; 6HR MAX TEMP:  60;

PINE BLUFFS    CLOUDY    43  43 100 CALM      30.10F FOG

$$



USA.gov is the U.S. government's official web portal to all federal, state and local government web resources and services.